Time,TemperatureF,DewpointF,PressureIn,WindDirection,WindDirectionDegrees,WindSpeedMPH,WindSpeedGustMPH,Humidity,HourlyPrecipIn,Conditions,Clouds,dailyrainin,SoftwareType,DateUTC
2013-01-09 00:22:00,48.0,41.0,-100.00,North,0,0.0,4.0,77,0.00,,,-99.99,,2013-01-09 08:22:00,
2013-01-09 00:32:00,48.0,41.0,-100.00,North,0,0.0,4.0,77,0.00,,,-99.99,,2013-01-09 08:32:00,
2013-01-09 00:42:00,48.0,41.0,-100.00,North,0,0.0,4.0,77,0.00,,,-99.99,,2013-01-09 08:42:00,
2013-01-09 01:22:00,48.0,41.0,-100.00,North,-999,0.0,0.0,77,0.00,,,-99.99,,2013-01-09 09:22:00,
2013-01-09 01:32:00,48.0,41.0,-100.00,North,-999,0.0,0.0,77,0.00,,,-99.99,,2013-01-09 09:32:00,
2013-01-09 01:42:00,48.0,41.0,-100.00,North,-999,0.0,0.0,77,0.00,,,-99.99,,2013-01-09 09:42:00,
2013-01-09 02:22:00,48.0,41.0,-100.00,North,0,0.0,5.0,77,0.00,,,-99.99,,2013-01-09 10:22:00,
2013-01-09 02:32:00,48.0,41.0,-100.00,North,0,0.0,5.0,77,0.00,,,-99.99,,2013-01-09 10:32:00,
2013-01-09 02:42:00,48.0,41.0,-100.00,North,0,0.0,5.0,77,0.00,,,-99.99,,2013-01-09 10:42:00,
2013-01-09 03:22:00,45.0,40.0,-100.00,North,0,0.0,3.0,81,0.00,,,-99.99,,2013-01-09 11:22:00,
2013-01-09 03:32:00,45.0,40.0,-100.00,North,0,0.0,3.0,81,0.00,,,-99.99,,2013-01-09 11:32:00,
2013-01-09 03:42:00,45.0,40.0,-100.00,North,0,0.0,3.0,81,0.00,,,-99.99,,2013-01-09 11:42:00,
2013-01-09 04:22:00,43.0,39.0,-100.00,North,0,0.0,3.0,85,0.00,,,-99.99,,2013-01-09 12:22:00,
2013-01-09 04:33:00,43.0,39.0,-100.00,North,0,0.0,3.0,85,0.00,,,-99.99,,2013-01-09 12:33:00,
2013-01-09 04:42:00,43.0,39.0,-100.00,North,0,0.0,3.0,85,0.00,,,-99.99,,2013-01-09 12:42:00,
2013-01-09 05:22:00,42.0,39.0,-100.00,North,0,0.0,2.0,89,0.00,,,-99.99,,2013-01-09 13:22:00,
2013-01-09 05:33:00,42.0,39.0,-100.00,North,0,0.0,2.0,89,0.00,,,-99.99,,2013-01-09 13:33:00,
2013-01-09 05:42:00,42.0,39.0,-100.00,North,0,0.0,2.0,89,0.00,,,-99.99,,2013-01-09 13:42:00,
2013-01-09 06:22:00,42.0,38.0,-100.00,ENE,70,1.0,1.0,87,0.00,,,-99.99,,2013-01-09 14:22:00,
2013-01-09 06:33:00,42.0,38.0,-100.00,ENE,70,1.0,1.0,87,0.00,,,-99.99,,2013-01-09 14:33:00,
2013-01-09 06:43:00,42.0,38.0,-100.00,ENE,70,1.0,1.0,87,0.00,,,-99.99,,2013-01-09 14:43:00,
2013-01-09 07:22:00,42.0,38.0,-100.00,North,0,0.0,1.0,87,0.00,,,-99.99,,2013-01-09 15:22:00,
2013-01-09 07:33:00,42.0,38.0,-100.00,North,0,0.0,1.0,87,0.00,,,-99.99,,2013-01-09 15:33:00,
2013-01-09 07:42:00,42.0,38.0,-100.00,North,0,0.0,1.0,87,0.00,,,-99.99,,2013-01-09 15:42:00,
2013-01-09 08:22:00,42.0,39.0,-100.00,ESE,120,1.0,3.0,90,0.00,,,-99.99,,2013-01-09 16:22:00,
2013-01-09 08:33:00,42.0,39.0,-100.00,ESE,120,1.0,3.0,90,0.00,,,-99.99,,2013-01-09 16:33:00,
2013-01-09 09:22:00,50.0,43.0,-100.00,North,0,0.0,3.0,77,0.00,,,-99.99,,2013-01-09 17:22:00,
2013-01-09 09:32:00,50.0,43.0,-100.00,North,0,0.0,3.0,77,0.00,,,-99.99,,2013-01-09 17:32:00,
2013-01-09 09:43:00,50.0,43.0,-100.00,North,0,0.0,3.0,77,0.00,,,-99.99,,2013-01-09 17:43:00,
2013-01-09 10:23:00,58.0,44.0,-100.00,NE,40,1.0,4.0,59,0.00,,,-99.99,,2013-01-09 18:23:00,
2013-01-09 10:33:00,58.0,44.0,-100.00,NE,40,1.0,4.0,59,0.00,,,-99.99,,2013-01-09 18:33:00,
2013-01-09 10:43:00,58.0,44.0,-100.00,NE,40,1.0,4.0,59,0.00,,,-99.99,,2013-01-09 18:43:00,
2013-01-09 11:22:00,66.0,43.0,-100.00,West,280,2.0,5.0,44,0.00,,,-99.99,,2013-01-09 19:22:00,
2013-01-09 11:33:00,66.0,43.0,-100.00,West,280,2.0,5.0,44,0.00,,,-99.99,,2013-01-09 19:33:00,
2013-01-09 11:43:00,66.0,43.0,-100.00,West,280,2.0,5.0,44,0.00,,,-99.99,,2013-01-09 19:43:00,
2013-01-09 12:22:00,71.0,43.0,-100.00,South,190,1.0,5.0,36,0.00,,,-99.99,,2013-01-09 20:22:00,
2013-01-09 12:33:00,71.0,43.0,-100.00,South,190,1.0,5.0,36,0.00,,,-99.99,,2013-01-09 20:33:00,
2013-01-09 12:42:00,71.0,43.0,-100.00,South,190,1.0,5.0,36,0.00,,,-99.99,,2013-01-09 20:42:00,
2013-01-09 13:22:00,70.0,41.0,-100.00,SSW,210,3.0,8.0,35,0.00,,,-99.99,,2013-01-09 21:22:00,
2013-01-09 13:33:00,70.0,41.0,-100.00,SSW,210,3.0,8.0,35,0.00,,,-99.99,,2013-01-09 21:33:00,
2013-01-09 13:43:00,70.0,41.0,-100.00,SSW,210,3.0,8.0,35,0.00,,,-99.99,,2013-01-09 21:43:00,
2013-01-09 14:22:00,71.0,40.0,-100.00,SW,220,3.0,9.0,32,0.00,,,-99.99,,2013-01-09 22:22:00,
2013-01-09 14:33:00,71.0,40.0,-100.00,SW,220,3.0,9.0,32,0.00,,,-99.99,,2013-01-09 22:33:00,
2013-01-09 14:42:00,71.0,40.0,-100.00,SW,220,3.0,9.0,32,0.00,,,-99.99,,2013-01-09 22:42:00,
2013-01-09 15:22:00,69.0,39.0,-100.00,West,270,4.0,10.0,34,0.00,,,-99.99,,2013-01-09 23:22:00,
2013-01-09 15:32:00,69.0,39.0,-100.00,West,270,4.0,10.0,34,0.00,,,-99.99,,2013-01-09 23:32:00,
2013-01-09 15:42:00,69.0,39.0,-100.00,West,270,4.0,10.0,34,0.00,,,-99.99,,2013-01-09 23:42:00,
2013-01-09 16:22:00,67.0,40.0,-100.00,SW,230,2.0,10.0,37,0.00,,,-99.99,,2013-01-10 00:22:00,
2013-01-09 16:32:00,67.0,40.0,-100.00,SW,230,2.0,10.0,37,0.00,,,-99.99,,2013-01-10 00:32:00,
2013-01-09 16:42:00,67.0,40.0,-100.00,SW,230,2.0,10.0,37,0.00,,,-99.99,,2013-01-10 00:42:00,
2013-01-09 17:22:00,65.0,40.0,-100.00,SW,230,1.0,7.0,40,0.00,,,-99.99,,2013-01-10 01:22:00,
2013-01-09 17:32:00,65.0,40.0,-100.00,SW,230,1.0,7.0,40,0.00,,,-99.99,,2013-01-10 01:32:00,
2013-01-09 17:42:00,65.0,40.0,-100.00,SW,230,1.0,7.0,40,0.00,,,-99.99,,2013-01-10 01:42:00,
2013-01-09 18:22:00,59.0,42.0,-100.00,North,0,0.0,4.0,53,0.00,,,-99.99,,2013-01-10 02:22:00,
2013-01-09 18:32:00,59.0,42.0,-100.00,North,0,0.0,4.0,53,0.00,,,-99.99,,2013-01-10 02:32:00,
2013-01-09 18:42:00,59.0,42.0,-100.00,North,0,0.0,4.0,53,0.00,,,-99.99,,2013-01-10 02:42:00,
2013-01-09 19:22:00,58.0,47.0,-100.00,North,0,0.0,8.0,68,0.00,,,-99.99,,2013-01-10 03:22:00,
2013-01-09 19:32:00,58.0,47.0,-100.00,North,0,0.0,8.0,68,0.00,,,-99.99,,2013-01-10 03:32:00,
2013-01-09 19:42:00,58.0,47.0,-100.00,North,0,0.0,8.0,68,0.00,,,-99.99,,2013-01-10 03:42:00,
2013-01-09 20:22:00,53.0,46.0,-100.00,WSW,250,2.0,5.0,77,0.00,,,-99.99,,2013-01-10 04:22:00,
2013-01-09 20:32:00,53.0,46.0,-100.00,WSW,250,2.0,5.0,77,0.00,,,-99.99,,2013-01-10 04:32:00,
2013-01-09 20:42:00,53.0,46.0,-100.00,WSW,250,2.0,5.0,77,0.00,,,-99.99,,2013-01-10 04:42:00,
2013-01-09 21:22:00,51.0,45.0,-100.00,North,0,0.0,4.0,81,0.00,,,-99.99,,2013-01-10 05:22:00,
2013-01-09 21:33:00,51.0,45.0,-100.00,North,0,0.0,4.0,81,0.00,,,-99.99,,2013-01-10 05:33:00,
2013-01-09 21:42:00,51.0,45.0,-100.00,North,0,0.0,4.0,81,0.00,,,-99.99,,2013-01-10 05:42:00,
2013-01-09 22:22:00,49.0,46.0,-100.00,West,260,1.0,2.0,90,0.00,,,-99.99,,2013-01-10 06:22:00,
2013-01-09 22:32:00,49.0,46.0,-100.00,West,260,1.0,2.0,90,0.00,,,-99.99,,2013-01-10 06:32:00,
2013-01-09 22:42:00,49.0,46.0,-100.00,West,260,1.0,2.0,90,0.00,,,-99.99,,2013-01-10 06:42:00,
2013-01-09 23:22:00,47.0,45.0,-100.00,North,0,0.0,3.0,92,0.00,,,-99.99,,2013-01-10 07:22:00,
2013-01-09 23:32:00,47.0,45.0,-100.00,North,0,0.0,3.0,92,0.00,,,-99.99,,2013-01-10 07:32:00,
2013-01-09 23:42:00,47.0,45.0,-100.00,North,0,0.0,3.0,92,0.00,,,-99.99,,2013-01-10 07:42:00,